Weather History for Lago Vista, TX

Change the Weather History Date:

Saturday, May 4, 2013

  Actual Average (KATT) Record (KATT)
Temperature  
Mean Temperature 65 °F 74 °F  
Max Temperature 80 °F 84 °F 100 °F (1984)
Min Temperature 50 °F 64 °F 42 °F (1907)
Degree Days  
Heating Degree Days 0 0  
Month to date heating degree days 0  
Since 1 July heating degree days 1537  
Cooling Degree Days 0 9  
Month to date cooling degree days 34  
Year to date cooling degree days 286  
Growing Degree Days 15 (Base 50)    
Moisture  
Dew Point 29 °F    
Average Humidity 29    
Maximum Humidity 47    
Minimum Humidity 12    
Precipitation  
Precipitation 0.00 in 0.12 in 2.70 in (1895)
Month to date precipitation 0.49  
Year to date precipitation 9.58  
Snow  
Snow 0.00 in - - ()
Month to date snowfall  
Since 1 July snowfall  
Snow Depth -    
Sea Level Pressure  
Sea Level Pressure 29.99 in    
Wind  
Wind Speed 7 mph (WSW)    
Max Wind Speed 15 mph    
Max Gust Speed 23 mph    
Visibility 10 miles    
Events      
T = Trace of Precipitation, MM = Missing Value Source: NWS Daily Summary

Daily Weather History Graph

Daily Weather History Graph

Search for Another Location

Airport:

Trip Planner

Search our weather history database for the weather conditions in past years. The results will help you decide how hot, cold, wet, or windy it might be!

Date:

Astronomy

May. 04, 2013 Rise Set
Actual Time 6:45 AM CDT 8:12 PM CDT
Civil Twilight 6:19 AM CDT 8:37 PM CDT
Nautical Twilight 5:49 AM CDT 9:08 PM CDT
Astronomical Twilight 5:17 AM CDT 9:40 PM CDT
Moon 3:22 AM CDT (5/4) 3:31 PM CDT (5/4)
Length of Visible Light 14h 18m
Length of Day
13h 26m
Waning Crescent, 27% of the Moon is Illuminated
May 4
Waning Crescent
May 9
New
May 17
First Quarter
May 24
Full
May 31
Last Quarter

Hourly Weather History & Observations

Time (CDT) Temp. Dew Point Humidity Pressure Visibility Wind Dir Wind Speed Gust Speed Precip Events Conditions
12:35 AM 55.4 °F 28.4 °F 36% 30.08 in 10.0 mi SSE 3.5 mph - N/A   Clear
12:55 AM 55.4 °F 28.4 °F 36% 30.07 in 10.0 mi South 3.5 mph - N/A   Clear
1:15 AM 55.4 °F 28.4 °F 36% 30.07 in 10.0 mi SSE 4.6 mph - N/A   Clear
1:35 AM 55.4 °F 28.4 °F 36% 30.06 in 10.0 mi South 5.8 mph - N/A   Clear
1:55 AM 53.6 °F 28.4 °F 38% 30.05 in 10.0 mi South 4.6 mph - N/A   Clear
2:15 AM 53.6 °F 30.2 °F 41% 30.04 in 10.0 mi South 5.8 mph - N/A   Clear
2:35 AM 53.6 °F 32.0 °F 44% 30.04 in 10.0 mi SSW 3.5 mph - N/A   Clear
2:55 AM 51.8 °F 32.0 °F 47% 30.03 in 10.0 mi SW 5.8 mph - N/A   Clear
3:15 AM 51.8 °F 30.2 °F 44% 30.02 in 10.0 mi SW 5.8 mph - N/A   Clear
3:35 AM 51.8 °F 30.2 °F 44% 30.01 in 10.0 mi SW 4.6 mph - N/A   Clear
3:55 AM 50.0 °F 30.2 °F 47% 30.01 in 10.0 mi SW 6.9 mph - N/A   Clear
4:15 AM 50.0 °F 30.2 °F 47% 30.01 in 10.0 mi SW 5.8 mph - N/A   Clear
4:35 AM 50.0 °F 30.2 °F 47% 30.01 in 10.0 mi SW 6.9 mph - N/A   Clear
4:55 AM 50.0 °F 30.2 °F 47% 30.00 in 10.0 mi SW 8.1 mph - N/A   Clear
5:15 AM 50.0 °F 30.2 °F 47% 30.00 in 10.0 mi SW 6.9 mph - N/A   Clear
5:35 AM 50.0 °F 30.2 °F 47% 30.00 in 10.0 mi WSW 8.1 mph - N/A   Clear
5:55 AM 50.0 °F 30.2 °F 47% 30.00 in 10.0 mi WSW 6.9 mph - N/A   Clear
6:15 AM 50.0 °F 30.2 °F 47% 30.01 in 10.0 mi WSW 9.2 mph - N/A   Clear
6:35 AM 50.0 °F 30.2 °F 47% 30.01 in 10.0 mi WSW 9.2 mph - N/A   Clear
6:55 AM 50.0 °F 30.2 °F 47% 30.02 in 10.0 mi WSW 10.4 mph - N/A   Clear
7:15 AM 50.0 °F 30.2 °F 47% 30.02 in 10.0 mi WSW 10.4 mph - N/A   Clear
7:35 AM 51.8 °F 30.2 °F 44% 30.03 in 10.0 mi WSW 10.4 mph - N/A   Clear
7:55 AM 51.8 °F 30.2 °F 44% 30.04 in 10.0 mi WSW 10.4 mph - N/A   Clear
8:15 AM 53.6 °F 28.4 °F 38% 30.04 in 10.0 mi WSW 10.4 mph - N/A   Clear
8:35 AM 53.6 °F 30.2 °F 41% 30.04 in 10.0 mi WSW 8.1 mph - N/A   Clear
8:55 AM 55.4 °F 30.2 °F 38% 30.04 in 10.0 mi WSW 9.2 mph - N/A   Clear
9:15 AM 55.4 °F 32.0 °F 41% 30.04 in 10.0 mi WSW 9.2 mph - N/A   Clear
9:35 AM 57.2 °F 32.0 °F 38% 30.04 in 10.0 mi WSW 12.7 mph - N/A   Clear
9:55 AM 59.0 °F 32.0 °F 36% 30.04 in 10.0 mi WSW 10.4 mph 16.1 mph N/A   Clear
10:15 AM 62.6 °F 32.0 °F 32% 30.03 in 10.0 mi WSW 11.5 mph 19.6 mph N/A   Clear
10:35 AM 64.4 °F 32.0 °F 30% 30.03 in 10.0 mi WSW 9.2 mph 17.3 mph N/A   Clear
10:55 AM 68.0 °F 32.0 °F 26% 30.03 in 10.0 mi WSW 12.7 mph 20.7 mph N/A   Clear
11:15 AM 69.8 °F 30.2 °F 23% 30.03 in 10.0 mi West 15.0 mph 20.7 mph N/A   Clear
11:35 AM 69.8 °F 30.2 °F 23% 30.03 in 10.0 mi WSW 15.0 mph 21.9 mph N/A   Clear
11:55 AM 71.6 °F 28.4 °F 20% 30.03 in 10.0 mi SW 12.7 mph 20.7 mph N/A   Clear
12:15 PM 73.4 °F 30.2 °F 20% 30.02 in 10.0 mi West 9.2 mph 16.1 mph N/A   Clear
12:35 PM 73.4 °F 28.4 °F 19% 30.01 in 10.0 mi WSW 8.1 mph 16.1 mph N/A   Clear
1:15 PM 77.0 °F 26.6 °F 16% 30.00 in 10.0 mi WNW 10.4 mph 19.6 mph N/A   Clear
1:35 PM 77.0 °F 26.6 °F 16% 29.99 in 10.0 mi West 11.5 mph 23.0 mph N/A   Clear
1:55 PM 77.0 °F 28.4 °F 17% 29.98 in 10.0 mi West 8.1 mph 19.6 mph N/A   Clear
2:15 PM 77.0 °F 26.6 °F 16% 29.98 in 10.0 mi Calm Calm - N/A   Clear
2:35 PM 78.8 °F 26.6 °F 15% 29.97 in 10.0 mi West 13.8 mph 21.9 mph N/A   Clear
2:55 PM 78.8 °F 24.8 °F 14% 29.97 in 10.0 mi West 11.5 mph 16.1 mph N/A   Clear
3:15 PM 78.8 °F 26.6 °F 15% 29.96 in 10.0 mi WNW 4.6 mph - N/A   Clear
3:35 PM 80.6 °F 23.0 °F 12% 29.95 in 10.0 mi WNW 12.7 mph 19.6 mph N/A   Clear
3:55 PM 78.8 °F 23.0 °F 13% 29.94 in 10.0 mi NW 9.2 mph 19.6 mph N/A   Clear
4:15 PM 80.6 °F 24.8 °F 13% 29.93 in 10.0 mi WNW 8.1 mph 21.9 mph N/A   Clear
4:35 PM 80.6 °F 23.0 °F 12% 29.93 in 10.0 mi West 13.8 mph 19.6 mph N/A   Clear
4:55 PM 78.8 °F 24.8 °F 14% 29.92 in 10.0 mi WSW 11.5 mph 19.6 mph N/A   Clear
5:15 PM 78.8 °F 26.6 °F 15% 29.92 in 10.0 mi West 5.8 mph - N/A   Clear
5:35 PM 80.6 °F 26.6 °F 14% 29.92 in 10.0 mi West 5.8 mph - N/A   Clear
6:15 PM 78.8 °F 26.6 °F 15% 29.91 in 10.0 mi Calm Calm - N/A   Clear
6:35 PM 78.8 °F 26.6 °F 15% 29.90 in 10.0 mi NW 5.8 mph - N/A   Clear
6:55 PM 77.0 °F 26.6 °F 16% 29.90 in 10.0 mi NNW 4.6 mph - N/A   Clear
7:15 PM 77.0 °F 28.4 °F 17% 29.90 in 10.0 mi Calm Calm - N/A   Clear
7:35 PM 77.0 °F 30.2 °F 18% 29.91 in 10.0 mi Calm Calm - N/A   Clear
7:55 PM 75.2 °F 28.4 °F 18% 29.91 in 10.0 mi Calm Calm - N/A   Clear
8:15 PM 77.0 °F 26.6 °F 16% 29.92 in 10.0 mi Calm Calm - N/A   Clear
8:35 PM 73.4 °F 26.6 °F 18% 29.93 in 10.0 mi NNW 4.6 mph - N/A   Clear
8:55 PM 71.6 °F 26.6 °F 19% 29.94 in 10.0 mi North 4.6 mph - N/A   Clear
9:15 PM 71.6 °F 24.8 °F 17% 29.94 in 10.0 mi North 5.8 mph - N/A   Clear
9:35 PM 71.6 °F 26.6 °F 19% 29.95 in 10.0 mi North 6.9 mph - N/A   Clear
9:55 PM 68.0 °F 30.2 °F 24% 29.97 in 10.0 mi NNE 8.1 mph - N/A   Clear
10:15 PM 68.0 °F 30.2 °F 24% 29.98 in 10.0 mi NE 8.1 mph - N/A   Clear
10:35 PM 68.0 °F 30.2 °F 24% 29.98 in 10.0 mi NE 9.2 mph - N/A   Clear
10:55 PM 68.0 °F 30.2 °F 24% 29.99 in 10.0 mi NNE 8.1 mph - N/A   Clear
11:15 PM 66.2 °F 30.2 °F 26% 29.99 in 10.0 mi NE 6.9 mph - N/A   Clear
11:35 PM 64.4 °F 30.2 °F 28% 30.00 in 10.0 mi NE 5.8 mph - N/A   Clear
11:55 PM 62.6 °F 30.2 °F 30% 30.01 in 10.0 mi NE 8.1 mph - N/A   Clear